Zurück zum Katalog

STARLINK-37364

AktivKommunikationSSO
NORAD 68783·PAYLOAD·🇺🇸 United States

Gestartet Apr 19, 2026 von Vandenberg Space Force Base

Loading…

Nächste Überflüge (nächste 24 Stunden)

TLE

AktuellSource: CelesTrak SupGP

Epoche: Sep 14, 2026, 22:51 UTC

1 68783C 26086T   26257.95256944  .00040884  00000+0  12692-2 0  2572
2 68783  97.2842 293.5054 0001224 109.8348  38.4916 15.33416466    17

Verfolge STARLINK-37364 in Echtzeit mit AllMySat

Download on the App Store